Terminal Aerodrome Forecast
Issued by NWS Memphis, TN

Home | Current Version | Previous Version | Text Only | Print | Product List | Glossary On
Versions: 1 2 3 4 5 6 7 8 9 10 11 12 13 14 15 16 17 18 19 20 21
000
FTUS44 KMEG 110900 AAB
TAFMKL
TAF AMD
KMKL 110900Z 1109/1206 VRB02KT 6SM BR SCT100 BKN250
      TEMPO 1109/1112 1SM BR SCT004
     FM111900 25004KT P6SM SCT060
     FM120100 00000KT P6SM FEW060 SCT150=

USA.gov is the U.S. government's official web portal to all federal, state and local government web resources and services.